{"data":{"norad_id":68536,"epoch":"2026-09-19T19:47:09.033504Z","epoch_age_seconds":105974,"freshness":"FRESH","line1":"1 68536U 26068AE  26262.82441011  .00011072  00000+0  33842-3 0  9992","line2":"2 68536  53.1569 297.1594 0001214  82.1625 277.9515 15.34393502 26816","mean_motion":15.34393502,"eccentricity":0.0001214,"inclination_deg":53.1569,"raan_deg":297.1594,"arg_perigee_deg":82.1625,"mean_anomaly_deg":277.9515,"bstar":0.00033842,"rev_number":2681,"period_min":93.848155517019,"perigee_km":461.89207335084,"apogee_km":463.55303405047,"semimajor_km":6840.8595537007,"source":"CELESTRAK","updated_at":"2026-09-20T09:00:43.909274Z"}}